Year,Month,Day,Hour,Minute,Value (Times are PST for windspeed in km/hr)
2007,11,12,00,00,20.30
2007,11,12,00,01,20.50
2007,11,12,00,02,19.30
2007,11,12,00,03,20.00
2007,11,12,00,04,21.60
2007,11,12,00,05,16.90
2007,11,12,00,06,19.80
2007,11,12,00,07,22.20
2007,11,12,00,08,24.10
2007,11,12,00,09,17.30
2007,11,12,00,10,22.00
2007,11,12,00,11,21.80
2007,11,12,00,12,18.60
2007,11,12,00,13,16.00
2007,11,12,00,14,20.00
2007,11,12,00,15,17.10
2007,11,12,00,16,10.20
2007,11,12,00,17,4.40
2007,11,12,00,18,12.10
2007,11,12,00,19,21.00
2007,11,12,00,20,17.90
2007,11,12,00,21,9.20
2007,11,12,00,22,13.90
2007,11,12,00,23,14.80
2007,11,12,00,24,7.60
2007,11,12,00,25,7.60
2007,11,12,00,26,18.50
2007,11,12,00,27,10.10
2007,11,12,00,28,13.30
2007,11,12,00,29,16.20
2007,11,12,00,30,11.50
2007,11,12,00,31,9.70
2007,11,12,00,32,13.00
2007,11,12,00,33,12.10
2007,11,12,00,34,6.40
2007,11,12,00,35,11.60
2007,11,12,00,36,16.20
2007,11,12,00,37,9.30
2007,11,12,00,38,6.90
2007,11,12,00,39,6.60
2007,11,12,00,40,10.40
2007,11,12,00,41,9.50
2007,11,12,00,42,11.80
2007,11,12,00,43,12.60
2007,11,12,00,44,8.90
2007,11,12,00,45,12.50
2007,11,12,00,46,8.70
2007,11,12,00,47,9.50
2007,11,12,00,48,11.20
2007,11,12,00,49,15.50
2007,11,12,00,50,16.70
2007,11,12,00,51,22.90
2007,11,12,00,52,15.40
2007,11,12,00,53,8.00
2007,11,12,00,54,13.50
2007,11,12,00,55,6.00
2007,11,12,00,56,7.00
2007,11,12,00,57,5.80
2007,11,12,00,58,10.00
2007,11,12,00,59,11.40
2007,11,12,01,00,4.50
2007,11,12,01,01,6.80
2007,11,12,01,02,1.10
2007,11,12,01,03,6.50
2007,11,12,01,04,7.70
2007,11,12,01,05,6.10
2007,11,12,01,06,7.80
2007,11,12,01,07,3.90
2007,11,12,01,08,2.90
2007,11,12,01,09,4.90
2007,11,12,01,10,7.20
2007,11,12,01,11,4.30
2007,11,12,01,12,1.40
2007,11,12,01,13,0.10
2007,11,12,01,14,3.00
2007,11,12,01,15,2.60
2007,11,12,01,16,3.50
2007,11,12,01,17,3.90
2007,11,12,01,18,4.70
2007,11,12,01,19,3.60
2007,11,12,01,20,0.60
2007,11,12,01,21,2.50
2007,11,12,01,22,4.80
2007,11,12,01,23,2.30
2007,11,12,01,24,1.10
2007,11,12,01,25,4.90
2007,11,12,01,26,0.40
2007,11,12,01,27,1.30
2007,11,12,01,28,0.70
2007,11,12,01,29,2.50
2007,11,12,01,30,4.70
2007,11,12,01,31,7.80
2007,11,12,01,32,7.00
2007,11,12,01,33,2.70
2007,11,12,01,34,0.40
2007,11,12,01,35,1.40
2007,11,12,01,36,1.30
2007,11,12,01,37,2.00
2007,11,12,01,38,8.00
2007,11,12,01,39,1.70
2007,11,12,01,40,3.00
2007,11,12,01,41,11.00
2007,11,12,01,42,9.50
2007,11,12,01,43,14.50
2007,11,12,01,44,8.00
2007,11,12,01,45,4.00
2007,11,12,01,46,17.30
2007,11,12,01,47,15.40
2007,11,12,01,48,17.90
2007,11,12,01,49,15.80
2007,11,12,01,50,15.50
2007,11,12,01,51,15.40
2007,11,12,01,52,16.90
2007,11,12,01,53,13.00
2007,11,12,01,54,25.70
2007,11,12,01,55,22.30
2007,11,12,01,56,12.20
2007,11,12,01,57,18.80
2007,11,12,01,58,18.00
2007,11,12,01,59,23.90
2007,11,12,02,00,22.20
2007,11,12,02,01,23.00
2007,11,12,02,02,20.30
2007,11,12,02,03,20.80
2007,11,12,02,04,20.60
2007,11,12,02,05,20.80
2007,11,12,02,06,22.30
2007,11,12,02,07,17.90
2007,11,12,02,08,34.00
2007,11,12,02,09,30.90
2007,11,12,02,10,31.20
2007,11,12,02,11,23.80
2007,11,12,02,12,16.30
2007,11,12,02,13,21.90
2007,11,12,02,14,22.50
2007,11,12,02,15,26.80
2007,11,12,02,16,24.40
2007,11,12,02,17,33.40
2007,11,12,02,18,23.90
2007,11,12,02,19,32.80
2007,11,12,02,20,30.60
2007,11,12,02,21,25.60
2007,11,12,02,22,25.30
2007,11,12,02,23,23.70
2007,11,12,02,24,28.50
2007,11,12,02,25,34.40
2007,11,12,02,26,30.10
2007,11,12,02,27,26.70
2007,11,12,02,28,28.50
2007,11,12,02,29,24.80
2007,11,12,02,30,26.20
2007,11,12,02,31,27.40
2007,11,12,02,32,32.80
2007,11,12,02,33,21.60
2007,11,12,02,34,24.60
2007,11,12,02,35,22.80
2007,11,12,02,36,23.60
2007,11,12,02,37,19.50
2007,11,12,02,38,22.90
2007,11,12,02,39,30.70
2007,11,12,02,40,24.30
2007,11,12,02,41,31.10
2007,11,12,02,42,26.90
2007,11,12,02,43,29.90
2007,11,12,02,44,27.80
2007,11,12,02,45,23.70
2007,11,12,02,46,29.10
2007,11,12,02,47,31.50
2007,11,12,02,48,34.00
2007,11,12,02,49,21.50
2007,11,12,02,50,19.10
2007,11,12,02,51,28.60
2007,11,12,02,52,27.60
2007,11,12,02,53,25.00
2007,11,12,02,54,25.20
2007,11,12,02,55,29.40
2007,11,12,02,56,33.10
2007,11,12,02,57,28.30
2007,11,12,02,58,27.60
2007,11,12,02,59,14.60
2007,11,12,03,00,20.10
2007,11,12,03,01,13.80
2007,11,12,03,02,18.80
2007,11,12,03,03,24.30
2007,11,12,03,04,23.00
2007,11,12,03,05,19.10
2007,11,12,03,06,21.00
2007,11,12,03,07,22.90
2007,11,12,03,08,31.50
2007,11,12,03,09,31.20
2007,11,12,03,10,29.20
2007,11,12,03,11,28.10
2007,11,12,03,12,23.00
2007,11,12,03,13,24.00
2007,11,12,03,14,23.90
2007,11,12,03,15,27.70
2007,11,12,03,16,20.50
2007,11,12,03,17,23.20
2007,11,12,03,18,14.10
2007,11,12,03,19,14.00
2007,11,12,03,20,12.70
2007,11,12,03,21,16.00
2007,11,12,03,22,16.50
2007,11,12,03,23,17.30
2007,11,12,03,24,21.90
2007,11,12,03,25,13.10
2007,11,12,03,26,11.60
2007,11,12,03,27,24.20
2007,11,12,03,28,22.20
2007,11,12,03,29,17.10
2007,11,12,03,30,28.70
2007,11,12,03,31,25.40
2007,11,12,03,32,24.00
2007,11,12,03,33,19.90
2007,11,12,03,34,17.80
2007,11,12,03,35,17.70
2007,11,12,03,36,18.20
2007,11,12,03,37,28.50
2007,11,12,03,38,21.70
2007,11,12,03,39,22.80
2007,11,12,03,40,19.80
2007,11,12,03,41,22.60
2007,11,12,03,42,19.70
2007,11,12,03,43,19.60
2007,11,12,03,44,17.80
2007,11,12,03,45,13.00
2007,11,12,03,46,15.30
2007,11,12,03,47,12.80
2007,11,12,03,48,16.60
2007,11,12,03,49,11.80
2007,11,12,03,50,14.50
2007,11,12,03,51,18.30
2007,11,12,03,52,20.90
2007,11,12,03,53,22.60
2007,11,12,03,54,14.80
2007,11,12,03,55,16.70
2007,11,12,03,56,13.60
2007,11,12,03,57,11.10
2007,11,12,03,58,13.60
2007,11,12,03,59,16.90
2007,11,12,04,00,12.30
2007,11,12,04,01,17.20
2007,11,12,04,02,13.60
2007,11,12,04,03,12.50
2007,11,12,04,04,7.70
2007,11,12,04,05,14.10
2007,11,12,04,06,9.90
2007,11,12,04,07,15.60
2007,11,12,04,08,7.80
2007,11,12,04,09,13.90
2007,11,12,04,10,22.40
2007,11,12,04,11,22.60
2007,11,12,04,12,16.00
2007,11,12,04,13,14.30
2007,11,12,04,14,19.50
2007,11,12,04,15,22.60
2007,11,12,04,16,20.80
2007,11,12,04,17,15.60
2007,11,12,04,18,18.80
2007,11,12,04,19,12.70
2007,11,12,04,20,15.60
2007,11,12,04,21,13.30
2007,11,12,04,22,12.00
2007,11,12,04,23,16.30
2007,11,12,04,24,16.90
2007,11,12,04,25,16.00
2007,11,12,04,26,18.40
2007,11,12,04,27,19.20
2007,11,12,04,28,16.50
2007,11,12,04,29,9.90
2007,11,12,04,30,7.50
2007,11,12,04,31,15.60
2007,11,12,04,32,12.40
2007,11,12,04,33,9.00
2007,11,12,04,34,9.10
2007,11,12,04,35,13.80
2007,11,12,04,36,13.50
2007,11,12,04,37,17.90
2007,11,12,04,38,14.10
2007,11,12,04,39,19.50
2007,11,12,04,40,25.30
2007,11,12,04,41,22.00
2007,11,12,04,42,20.60
2007,11,12,04,43,24.50
2007,11,12,04,44,26.50
2007,11,12,04,45,25.90
2007,11,12,04,46,22.20
2007,11,12,04,47,28.80
2007,11,12,04,48,32.10
2007,11,12,04,49,26.00
2007,11,12,04,50,28.50
2007,11,12,04,51,26.40
2007,11,12,04,52,28.00
2007,11,12,04,53,32.60
2007,11,12,04,54,27.10
2007,11,12,04,55,26.30
2007,11,12,04,56,26.60
2007,11,12,04,57,25.10
2007,11,12,04,58,28.90
2007,11,12,04,59,26.10
2007,11,12,05,00,27.90
2007,11,12,05,01,22.60
2007,11,12,05,02,25.50
2007,11,12,05,03,25.70
2007,11,12,05,04,19.60
2007,11,12,05,05,26.90
2007,11,12,05,06,23.70
2007,11,12,05,07,18.40
2007,11,12,05,08,21.30
2007,11,12,05,09,23.70
2007,11,12,05,10,28.80
2007,11,12,05,11,34.60
2007,11,12,05,12,28.50
2007,11,12,05,13,26.80
2007,11,12,05,14,23.70
2007,11,12,05,15,22.70
2007,11,12,05,16,27.50
2007,11,12,05,17,25.70
2007,11,12,05,18,19.00
2007,11,12,05,19,26.40
2007,11,12,05,20,28.50
2007,11,12,05,21,29.20
2007,11,12,05,22,23.00
2007,11,12,05,23,29.90
2007,11,12,05,24,28.90
2007,11,12,05,25,28.60
2007,11,12,05,26,28.70
2007,11,12,05,27,26.30
2007,11,12,05,28,31.80
2007,11,12,05,29,25.80
2007,11,12,05,30,29.40
2007,11,12,05,31,31.70
2007,11,12,05,32,24.90
2007,11,12,05,33,26.90
2007,11,12,05,34,33.10
2007,11,12,05,35,29.20
2007,11,12,05,36,30.30
2007,11,12,05,37,30.70
2007,11,12,05,38,31.90
2007,11,12,05,39,28.40
2007,11,12,05,40,30.10
2007,11,12,05,41,43.60
2007,11,12,05,42,31.30
2007,11,12,05,43,33.90
2007,11,12,05,44,37.50
2007,11,12,05,45,37.90
2007,11,12,05,46,26.90
2007,11,12,05,47,31.00
2007,11,12,05,48,27.00
2007,11,12,05,49,33.50
2007,11,12,05,50,31.50
2007,11,12,05,51,30.70
2007,11,12,05,52,35.80
2007,11,12,05,53,32.50
2007,11,12,05,54,39.90
2007,11,12,05,55,33.00
2007,11,12,05,56,36.40
2007,11,12,05,57,39.10
2007,11,12,05,58,35.90
2007,11,12,05,59,34.80
2007,11,12,06,00,29.10
2007,11,12,06,01,35.00
2007,11,12,06,02,30.30
2007,11,12,06,03,39.50
2007,11,12,06,04,41.80
2007,11,12,06,05,31.10
2007,11,12,06,06,38.80
2007,11,12,06,07,42.30
2007,11,12,06,08,31.40
2007,11,12,06,09,33.30
2007,11,12,06,10,47.70
2007,11,12,06,11,34.20
2007,11,12,06,12,43.10
2007,11,12,06,13,31.00
2007,11,12,06,14,42.70
2007,11,12,06,15,44.40
2007,11,12,06,16,31.10
2007,11,12,06,17,37.60
2007,11,12,06,18,41.10
2007,11,12,06,19,32.30
2007,11,12,06,20,47.00
2007,11,12,06,21,35.60
2007,11,12,06,22,43.70
2007,11,12,06,23,35.50
2007,11,12,06,24,39.60
2007,11,12,06,25,32.30
2007,11,12,06,26,40.30
2007,11,12,06,27,40.80
2007,11,12,06,28,37.80
2007,11,12,06,29,45.00
2007,11,12,06,30,34.20
2007,11,12,06,31,29.40
2007,11,12,06,32,46.10
2007,11,12,06,33,37.10
2007,11,12,06,34,46.50
2007,11,12,06,35,34.20
2007,11,12,06,36,42.10
2007,11,12,06,37,44.70
2007,11,12,06,38,34.20
2007,11,12,06,39,28.40
2007,11,12,06,40,35.90
2007,11,12,06,41,42.90
2007,11,12,06,42,40.10
2007,11,12,06,43,35.60
2007,11,12,06,44,43.90
2007,11,12,06,45,51.30
2007,11,12,06,46,36.30
2007,11,12,06,47,46.20
2007,11,12,06,48,47.10
2007,11,12,06,49,35.40
2007,11,12,06,50,31.10
2007,11,12,06,51,34.40
2007,11,12,06,52,33.80
2007,11,12,06,53,36.70
2007,11,12,06,54,37.40
2007,11,12,06,55,34.90
2007,11,12,06,56,37.10
2007,11,12,06,57,38.60
2007,11,12,06,58,43.80
2007,11,12,06,59,44.80
2007,11,12,07,00,36.20
2007,11,12,07,01,33.70
2007,11,12,07,02,45.70
2007,11,12,07,03,39.40
2007,11,12,07,04,44.60
2007,11,12,07,05,41.70
2007,11,12,07,06,38.90
2007,11,12,07,07,32.80
2007,11,12,07,08,42.70
2007,11,12,07,09,29.90
2007,11,12,07,10,41.30
2007,11,12,07,11,36.30
2007,11,12,07,12,29.60
2007,11,12,07,13,39.30
2007,11,12,07,14,29.70
2007,11,12,07,15,26.20
2007,11,12,07,16,28.90
2007,11,12,07,17,37.80
2007,11,12,07,18,30.80
2007,11,12,07,19,35.60
2007,11,12,07,20,33.70
2007,11,12,07,21,39.00
2007,11,12,07,22,33.60
2007,11,12,07,23,24.40
2007,11,12,07,24,32.30
2007,11,12,07,25,24.00
2007,11,12,07,26,23.80
2007,11,12,07,27,29.10
2007,11,12,07,28,43.50
2007,11,12,07,29,31.70
2007,11,12,07,30,32.90
2007,11,12,07,31,36.60
2007,11,12,07,32,43.20
2007,11,12,07,33,38.00
2007,11,12,07,34,21.50
2007,11,12,07,35,18.50
2007,11,12,07,36,30.20
2007,11,12,07,37,34.60
2007,11,12,07,38,28.70
2007,11,12,07,39,31.50
2007,11,12,07,40,35.20
2007,11,12,07,41,32.60
2007,11,12,07,42,23.50
2007,11,12,07,43,31.60
2007,11,12,07,44,24.70
2007,11,12,07,45,42.70
2007,11,12,07,46,33.20
2007,11,12,07,47,30.80
2007,11,12,07,48,30.20
2007,11,12,07,49,27.40
2007,11,12,07,50,28.60
2007,11,12,07,51,25.30
2007,11,12,07,52,26.60
2007,11,12,07,53,29.10
2007,11,12,07,54,32.70
2007,11,12,07,55,33.20
2007,11,12,07,56,34.90
2007,11,12,07,57,35.60
2007,11,12,07,58,25.90
2007,11,12,07,59,28.50
2007,11,12,08,00,42.10
2007,11,12,08,01,32.60
2007,11,12,08,02,42.90
2007,11,12,08,03,38.00
2007,11,12,08,04,37.00
2007,11,12,08,05,36.90
2007,11,12,08,06,25.80
2007,11,12,08,07,25.60
2007,11,12,08,08,23.60
2007,11,12,08,09,31.50
2007,11,12,08,10,29.80
2007,11,12,08,11,34.60
2007,11,12,08,12,36.80
2007,11,12,08,13,30.60
2007,11,12,08,14,32.30
2007,11,12,08,15,31.50
2007,11,12,08,16,37.20
2007,11,12,08,17,36.90
2007,11,12,08,18,36.20
2007,11,12,08,19,29.00
2007,11,12,08,20,26.90
2007,11,12,08,21,27.00
2007,11,12,08,22,33.10
2007,11,12,08,23,31.20
2007,11,12,08,24,31.70
2007,11,12,08,25,32.50
2007,11,12,08,26,32.60
2007,11,12,08,27,33.60
2007,11,12,08,28,27.10
2007,11,12,08,29,25.80
2007,11,12,08,30,21.90
2007,11,12,08,31,29.50
2007,11,12,08,32,37.40
2007,11,12,08,33,41.20
2007,11,12,08,34,35.20
2007,11,12,08,35,30.20
2007,11,12,08,36,32.20
2007,11,12,08,37,31.30
2007,11,12,08,38,36.10
2007,11,12,08,39,31.30
2007,11,12,08,40,37.00
2007,11,12,08,41,28.20
2007,11,12,08,42,27.40
2007,11,12,08,43,32.00
2007,11,12,08,44,30.60
2007,11,12,08,45,38.50
2007,11,12,08,46,28.80
2007,11,12,08,47,37.00
2007,11,12,08,48,39.00
2007,11,12,08,49,29.70
2007,11,12,08,50,32.40
2007,11,12,08,51,33.00
2007,11,12,08,52,38.20
2007,11,12,08,53,33.30
2007,11,12,08,54,26.90
2007,11,12,08,55,29.20
2007,11,12,08,56,24.20
2007,11,12,08,57,24.70
2007,11,12,08,58,26.10
2007,11,12,08,59,22.60
2007,11,12,09,00,21.90
2007,11,12,09,01,25.20
2007,11,12,09,02,25.60
2007,11,12,09,03,32.60
2007,11,12,09,04,26.60
2007,11,12,09,05,28.30
2007,11,12,09,06,27.40
2007,11,12,09,07,29.30
2007,11,12,09,08,28.20
2007,11,12,09,09,30.50
2007,11,12,09,10,30.20
2007,11,12,09,11,17.00
2007,11,12,09,12,30.00
2007,11,12,09,13,29.00
2007,11,12,09,14,26.50
2007,11,12,09,15,28.10
2007,11,12,09,16,22.40
2007,11,12,09,17,33.20
2007,11,12,09,18,23.60
2007,11,12,09,19,26.10
2007,11,12,09,20,26.30
2007,11,12,09,21,35.10
2007,11,12,09,22,24.40
2007,11,12,09,23,17.40
2007,11,12,09,24,20.90
2007,11,12,09,25,22.40
2007,11,12,09,26,23.70
2007,11,12,09,27,21.50
2007,11,12,09,28,18.10
2007,11,12,09,29,10.40
2007,11,12,09,30,18.90
2007,11,12,09,31,14.00
2007,11,12,09,32,14.60
2007,11,12,09,33,12.80
2007,11,12,09,34,8.80
2007,11,12,09,35,11.80
2007,11,12,09,36,12.20
2007,11,12,09,37,2.40
2007,11,12,09,38,3.00
2007,11,12,09,39,5.70
2007,11,12,09,40,7.40
2007,11,12,09,41,4.10
2007,11,12,09,42,2.40
2007,11,12,09,43,5.20
2007,11,12,09,44,1.50
2007,11,12,09,45,3.10
2007,11,12,09,46,1.40
2007,11,12,09,47,1.90
2007,11,12,09,48,1.50
2007,11,12,09,49,0.20
2007,11,12,09,50,0.50
2007,11,12,09,51,5.00
2007,11,12,09,52,5.90
2007,11,12,09,53,3.20
2007,11,12,09,54,0.30
2007,11,12,09,55,4.20
2007,11,12,09,56,1.40
2007,11,12,09,57,0.30
2007,11,12,09,58,0.40
2007,11,12,09,59,4.90
2007,11,12,10,00,5.20
2007,11,12,10,01,4.10
2007,11,12,10,02,2.00
2007,11,12,10,03,4.50
2007,11,12,10,04,2.80
2007,11,12,10,05,11.50
2007,11,12,10,06,9.60
2007,11,12,10,07,13.80
2007,11,12,10,08,7.80
2007,11,12,10,09,13.90
2007,11,12,10,10,13.80
2007,11,12,10,11,9.70
2007,11,12,10,12,14.40
2007,11,12,10,13,12.50
2007,11,12,10,14,17.10
2007,11,12,10,15,11.20
2007,11,12,10,16,8.60
2007,11,12,10,17,6.30
2007,11,12,10,18,5.30
2007,11,12,10,19,6.90
2007,11,12,10,20,5.70
2007,11,12,10,21,5.70
2007,11,12,10,22,2.40
2007,11,12,10,23,4.10
2007,11,12,10,24,6.40
2007,11,12,10,25,6.70
2007,11,12,10,26,6.80
2007,11,12,10,27,5.80
2007,11,12,10,28,6.30
2007,11,12,10,29,8.30
2007,11,12,10,30,6.00
2007,11,12,10,31,5.40
2007,11,12,10,32,3.80
2007,11,12,10,33,6.20
2007,11,12,10,34,6.50
2007,11,12,10,35,5.50
2007,11,12,10,36,6.40
2007,11,12,10,37,11.40
2007,11,12,10,38,15.00
2007,11,12,10,39,14.90
2007,11,12,10,40,9.20
2007,11,12,10,41,11.00
2007,11,12,10,42,14.80
2007,11,12,10,43,10.80
2007,11,12,10,44,10.30
2007,11,12,10,45,15.20
2007,11,12,10,46,17.70
2007,11,12,10,47,16.80
2007,11,12,10,48,10.80
2007,11,12,10,49,13.30
2007,11,12,10,50,9.00
2007,11,12,10,51,12.50
2007,11,12,10,52,13.50
2007,11,12,10,53,14.40
2007,11,12,10,54,13.70
2007,11,12,10,55,13.70
2007,11,12,10,56,16.90
2007,11,12,10,57,13.60
2007,11,12,10,58,16.20
2007,11,12,10,59,15.30
2007,11,12,11,00,13.10
2007,11,12,11,01,14.00
2007,11,12,11,02,15.00
2007,11,12,11,03,14.00
2007,11,12,11,04,9.80
2007,11,12,11,05,12.10
2007,11,12,11,06,11.80
2007,11,12,11,07,16.80
2007,11,12,11,08,23.00
2007,11,12,11,09,17.20
2007,11,12,11,10,10.90
2007,11,12,11,11,12.40
2007,11,12,11,12,12.20
2007,11,12,11,13,17.00
2007,11,12,11,14,14.20
2007,11,12,11,15,11.50
2007,11,12,11,16,12.40
2007,11,12,11,17,11.80
2007,11,12,11,18,17.70
2007,11,12,11,19,15.00
2007,11,12,11,20,17.60
2007,11,12,11,21,15.90
2007,11,12,11,22,14.70
2007,11,12,11,23,17.30
2007,11,12,11,24,21.20
2007,11,12,11,25,12.90
2007,11,12,11,26,11.40
2007,11,12,11,27,21.10
2007,11,12,11,28,28.70
2007,11,12,11,29,21.40
2007,11,12,11,30,23.20
2007,11,12,11,31,17.90
2007,11,12,11,32,14.90
2007,11,12,11,33,12.70
2007,11,12,11,34,16.90
2007,11,12,11,35,11.10
2007,11,12,11,36,10.10
2007,11,12,11,37,20.20
2007,11,12,11,38,15.90
2007,11,12,11,39,18.50
2007,11,12,11,40,10.40
2007,11,12,11,41,10.30
2007,11,12,11,42,18.00
2007,11,12,11,43,18.20
2007,11,12,11,44,16.70
2007,11,12,11,45,20.40
2007,11,12,11,46,19.70
2007,11,12,11,47,17.70
2007,11,12,11,48,16.40
2007,11,12,11,49,11.70
2007,11,12,11,50,23.10
2007,11,12,11,51,19.50
2007,11,12,11,52,19.40
2007,11,12,11,53,24.30
2007,11,12,11,54,27.40
2007,11,12,11,55,16.60
2007,11,12,11,56,16.90
2007,11,12,11,57,21.90
2007,11,12,11,58,17.00
2007,11,12,11,59,13.60
2007,11,12,12,00,12.40
2007,11,12,12,01,13.20
2007,11,12,12,02,15.80
2007,11,12,12,03,14.30
2007,11,12,12,04,20.80
2007,11,12,12,05,19.70
2007,11,12,12,06,20.90
2007,11,12,12,07,14.70
2007,11,12,12,08,17.10
2007,11,12,12,09,21.10
2007,11,12,12,10,15.00
2007,11,12,12,11,11.60
2007,11,12,12,12,11.40
2007,11,12,12,13,13.80
2007,11,12,12,14,10.30
2007,11,12,12,15,20.30
2007,11,12,12,16,12.50
2007,11,12,12,17,15.70
2007,11,12,12,18,20.20
2007,11,12,12,19,26.90
2007,11,12,12,20,12.50
2007,11,12,12,21,22.20
2007,11,12,12,22,17.50
2007,11,12,12,23,20.80
2007,11,12,12,24,17.40
2007,11,12,12,25,17.10
2007,11,12,12,26,20.30
2007,11,12,12,27,28.00
2007,11,12,12,28,19.70
2007,11,12,12,29,17.10
2007,11,12,12,30,21.10
2007,11,12,12,31,23.40
2007,11,12,12,32,20.20
2007,11,12,12,33,17.40
2007,11,12,12,34,20.90
2007,11,12,12,35,14.10
2007,11,12,12,36,13.40
2007,11,12,12,37,20.60
2007,11,12,12,38,16.90
2007,11,12,12,39,20.10
2007,11,12,12,40,18.80
2007,11,12,12,41,17.50
2007,11,12,12,42,20.20
2007,11,12,12,43,21.90
2007,11,12,12,44,22.90
2007,11,12,12,45,26.80
2007,11,12,12,46,19.10
2007,11,12,12,47,15.70
2007,11,12,12,48,10.50
2007,11,12,12,49,10.00
2007,11,12,12,50,19.70
2007,11,12,12,51,20.70
2007,11,12,12,52,20.30
2007,11,12,12,53,23.90
2007,11,12,12,54,24.90
2007,11,12,12,55,24.10
2007,11,12,12,56,17.50
2007,11,12,12,57,24.00
2007,11,12,12,58,23.90
2007,11,12,12,59,24.10
2007,11,12,13,00,22.10
2007,11,12,13,01,21.90
2007,11,12,13,02,23.00
2007,11,12,13,03,20.80
2007,11,12,13,04,26.30
2007,11,12,13,05,14.60
2007,11,12,13,06,12.50
2007,11,12,13,07,19.60
2007,11,12,13,08,19.00
2007,11,12,13,09,16.10
2007,11,12,13,10,14.10
2007,11,12,13,11,20.10
2007,11,12,13,12,17.30
2007,11,12,13,13,14.50
2007,11,12,13,14,21.60
2007,11,12,13,15,24.30
2007,11,12,13,16,22.00
2007,11,12,13,17,28.40
2007,11,12,13,18,26.20
2007,11,12,13,19,27.10
2007,11,12,13,20,23.70
2007,11,12,13,21,26.60
2007,11,12,13,22,29.10
2007,11,12,13,23,25.60
2007,11,12,13,24,20.10
2007,11,12,13,25,29.50
2007,11,12,13,26,23.00
2007,11,12,13,27,19.80
2007,11,12,13,28,23.90
2007,11,12,13,29,23.60
2007,11,12,13,30,19.20
2007,11,12,13,31,25.30
2007,11,12,13,32,21.50
2007,11,12,13,33,19.20
2007,11,12,13,34,21.00
2007,11,12,13,35,19.50
2007,11,12,13,36,28.70
2007,11,12,13,37,25.20
2007,11,12,13,38,21.40
2007,11,12,13,39,15.50
2007,11,12,13,40,23.00
2007,11,12,13,41,20.10
2007,11,12,13,42,17.10
2007,11,12,13,43,21.00
2007,11,12,13,44,25.40
2007,11,12,13,45,23.70
2007,11,12,13,46,19.30
2007,11,12,13,47,16.50
2007,11,12,13,48,21.50
2007,11,12,13,49,22.00
2007,11,12,13,50,27.90
2007,11,12,13,51,27.80
2007,11,12,13,52,23.40
2007,11,12,13,53,28.40
2007,11,12,13,54,20.20
2007,11,12,13,55,18.50
2007,11,12,13,56,19.90
2007,11,12,13,57,18.60
2007,11,12,13,58,20.80
2007,11,12,13,59,22.40
2007,11,12,14,00,16.50
2007,11,12,14,01,14.10
2007,11,12,14,02,19.10
2007,11,12,14,03,21.80
2007,11,12,14,04,17.40
2007,11,12,14,05,19.30
2007,11,12,14,06,19.60
2007,11,12,14,07,21.60
2007,11,12,14,08,16.60
2007,11,12,14,09,18.70
2007,11,12,14,10,22.50
2007,11,12,14,11,16.90
2007,11,12,14,12,18.50
2007,11,12,14,13,26.80
2007,11,12,14,14,19.00
2007,11,12,14,15,18.90
2007,11,12,14,16,20.30
2007,11,12,14,17,21.50
2007,11,12,14,18,18.60
2007,11,12,14,19,24.70
2007,11,12,14,20,15.60
2007,11,12,14,21,21.40
2007,11,12,14,22,13.90
2007,11,12,14,23,16.50
2007,11,12,14,24,17.30
2007,11,12,14,25,22.40
2007,11,12,14,26,23.00
2007,11,12,14,27,15.60
2007,11,12,14,28,22.30
2007,11,12,14,29,20.50
2007,11,12,14,30,13.70
2007,11,12,14,31,13.40
2007,11,12,14,32,18.30
2007,11,12,14,33,13.80
2007,11,12,14,34,11.80
2007,11,12,14,35,16.20
2007,11,12,14,36,23.70
2007,11,12,14,37,16.70
2007,11,12,14,38,20.10
2007,11,12,14,39,20.70
2007,11,12,14,40,20.20
2007,11,12,14,41,19.30
2007,11,12,14,42,24.60
2007,11,12,14,43,21.90
2007,11,12,14,44,16.10
2007,11,12,14,45,18.90
2007,11,12,14,46,19.90
2007,11,12,14,47,20.60
2007,11,12,14,48,23.00
2007,11,12,14,49,19.00
2007,11,12,14,50,17.30
2007,11,12,14,51,20.30
2007,11,12,14,52,15.40
2007,11,12,14,53,17.90
2007,11,12,14,54,20.60
2007,11,12,14,55,17.30
2007,11,12,14,56,20.60
2007,11,12,14,57,17.80
2007,11,12,14,58,18.30
2007,11,12,14,59,15.10
2007,11,12,15,00,19.80
2007,11,12,15,01,24.70
2007,11,12,15,02,26.60
2007,11,12,15,03,19.40
2007,11,12,15,04,19.90
2007,11,12,15,05,13.90
2007,11,12,15,06,17.60
2007,11,12,15,07,15.40
2007,11,12,15,08,14.80
2007,11,12,15,09,14.10
2007,11,12,15,10,19.70
2007,11,12,15,11,23.70
2007,11,12,15,12,13.60
2007,11,12,15,13,10.30
2007,11,12,15,14,12.00
2007,11,12,15,15,17.50
2007,11,12,15,16,19.00
2007,11,12,15,17,20.70
2007,11,12,15,18,18.70
2007,11,12,15,19,24.20
2007,11,12,15,20,19.10
2007,11,12,15,21,23.30
2007,11,12,15,22,32.20
2007,11,12,15,23,30.90
2007,11,12,15,24,36.60
2007,11,12,15,25,32.70
2007,11,12,15,26,18.40
2007,11,12,15,27,24.70
2007,11,12,15,28,31.60
2007,11,12,15,29,29.10
2007,11,12,15,30,26.20
2007,11,12,15,31,25.60
2007,11,12,15,32,23.90
2007,11,12,15,33,24.40
2007,11,12,15,34,19.60
2007,11,12,15,35,18.40
2007,11,12,15,36,19.00
2007,11,12,15,37,20.40
2007,11,12,15,38,17.50
2007,11,12,15,39,23.90
2007,11,12,15,40,16.10
2007,11,12,15,41,20.30
2007,11,12,15,42,20.70
2007,11,12,15,43,15.20
2007,11,12,15,44,15.70
2007,11,12,15,45,17.20
2007,11,12,15,46,17.80
2007,11,12,15,47,18.70
2007,11,12,15,48,22.10
2007,11,12,15,49,20.30
2007,11,12,15,50,18.30
2007,11,12,15,51,19.60
2007,11,12,15,52,10.40
2007,11,12,15,53,11.80
2007,11,12,15,54,13.90
2007,11,12,15,55,20.40
2007,11,12,15,56,15.00
2007,11,12,15,57,17.30
2007,11,12,15,58,17.30
2007,11,12,15,59,12.50
2007,11,12,16,00,12.90
2007,11,12,16,01,14.10
2007,11,12,16,02,10.00
2007,11,12,16,03,7.30
2007,11,12,16,04,7.70
2007,11,12,16,05,8.10
2007,11,12,16,06,11.00
2007,11,12,16,07,12.30
2007,11,12,16,08,15.00
2007,11,12,16,09,24.60
2007,11,12,16,10,19.20
2007,11,12,16,11,12.30
2007,11,12,16,12,8.90
2007,11,12,16,13,9.10
2007,11,12,16,14,13.80
2007,11,12,16,15,17.90
2007,11,12,16,16,20.70
2007,11,12,16,17,13.10
2007,11,12,16,18,11.50
2007,11,12,16,19,8.80
2007,11,12,16,20,11.30
2007,11,12,16,21,14.90
2007,11,12,16,22,12.10
2007,11,12,16,23,12.70
2007,11,12,16,24,17.50
2007,11,12,16,25,15.00
2007,11,12,16,26,15.60
2007,11,12,16,27,7.00
2007,11,12,16,28,5.00
2007,11,12,16,29,6.10
2007,11,12,16,30,4.80
2007,11,12,16,31,8.30
2007,11,12,16,32,5.90
2007,11,12,16,33,7.10
2007,11,12,16,34,6.50
2007,11,12,16,35,18.10
2007,11,12,16,36,9.30
2007,11,12,16,37,3.40
2007,11,12,16,38,4.50
2007,11,12,16,39,6.50
2007,11,12,16,40,8.10
2007,11,12,16,41,1.90
2007,11,12,16,42,2.30
2007,11,12,16,43,10.80
2007,11,12,16,44,6.90
2007,11,12,16,45,16.30
2007,11,12,16,46,29.50
2007,11,12,16,47,15.80
2007,11,12,16,48,8.90
2007,11,12,16,49,17.60
2007,11,12,16,50,14.00
2007,11,12,16,51,14.20
2007,11,12,16,52,16.20
2007,11,12,16,53,11.80
2007,11,12,16,54,9.10
2007,11,12,16,55,13.80
2007,11,12,16,56,14.50
2007,11,12,16,57,25.20
2007,11,12,16,58,15.30
2007,11,12,16,59,4.30
2007,11,12,17,00,12.10
2007,11,12,17,01,5.90
2007,11,12,17,02,4.90
2007,11,12,17,03,8.00
2007,11,12,17,04,8.30
2007,11,12,17,05,12.50
2007,11,12,17,06,10.60
2007,11,12,17,07,13.60
2007,11,12,17,08,34.20
2007,11,12,17,09,37.60
2007,11,12,17,10,27.80
2007,11,12,17,11,14.70
2007,11,12,17,12,19.80
2007,11,12,17,13,13.50
2007,11,12,17,14,17.30
2007,11,12,17,15,13.80
2007,11,12,17,16,16.30
2007,11,12,17,17,11.70
2007,11,12,17,18,7.50
2007,11,12,17,19,18.90
2007,11,12,17,20,10.90
2007,11,12,17,21,6.00
2007,11,12,17,22,11.30
2007,11,12,17,23,7.80
2007,11,12,17,24,13.90
2007,11,12,17,25,10.20
2007,11,12,17,26,8.00